User: anonymous   Login
Location: Newsoms
(36.6240°N, 77.1250°W)
Time: 12:01:34
(UTC-04:00)
Language:

BREEZE-M DEB (TANK) - Orbit

View from above orbital plane
View from above orbital plane
View from above satellite
View from above satellite

Ground track
Ground track

The orbit data is extracted from the following two-line orbital elements,

1 29649U 06056B   15142.05274262  .00002720  00000-0  78328-3 0  9990
2 29649 049.4925 065.8190 5382919 050.2916 019.9060 04.96615203150023
Epoch (UTC): 22 May 2015 01:15:56
Eccentricity: 0.5382919
inclination: 49.4925°
perigee height: 322 km
apogee height: 15945 km
right ascension of ascending node: 65.8190°
argument of perigee: 50.2916°
revolutions per day: 4.96615203
mean anomaly at epoch: 19.9060°
orbit number at epoch: 15002

The dashed part of the orbit path shows where the satellite is in the earth's shadow,  

DLR